Regional Weather Roundup
Issued by NWS

Home | Current Version | Previous Version | Text Only | Print | Product List | Glossary On
Versions: 1 2 3 4 5 6 7 8 9 10 11 12 13 14 15 16 17 18 19 20 21 22 23 24 25 26 27 28 29 30 31 32 33 34 35 36 37 38 39 40 41 42 43 44 45 46 47 48 49 50
000
ASUS43 KDTX 240501
RWRMI
MICHIGAN HOURLY REGIONAL WEATHER ROUNDUP
NATIONAL WEATHER SERVICE DETROIT/PONTIAC MI
1200 AM EST FRI FEB 24 2017

NOTE: "FAIR" INDICATES FEW OR NO CLOUDS BELOW 12,000 FEET WITH NO
SIGNIFICANT WEATHER AND/OR OBSTRUCTION TO VISIBILITY.

MIZ047>049-052>055-059>063-066>070-074>076-081>083-240600-
SOUTHEAST LOWER MICHIGAN

CITY           SKY/WX    TMP DP  RH WIND       PRES   REMARKS
ADRIAN         LGT RAIN  43  40  89 E13       29.80R
ALMA           LGT RAIN  39  36  86 NE12      29.85R WCI  32
ANN ARBOR      LGT RAIN  41  37  86 NE13      29.81F
BAD AXE        CLOUDY    35  30  83 NE9       29.89F WCI  27
CARO           CLOUDY    37  32  82 NE7       29.87S WCI  31
DETROIT CITY   LGT RAIN  40  36  86 NE7       29.85S
DETROIT        LGT RAIN  42  36  79 NE10      29.84S
FLINT          LGT RAIN  38  34  85 E14       29.85S WCI  30
GROSSE ILE     LGT RAIN  40  37  89 NE12      29.81F WCI  33
HILLSDALE      LGT RAIN  45  41  87 E14       29.76S
HOWELL         LGT RAIN  40  37  87 E12       29.82F WCI  33

CITY           SKY/WX    TMP DP  RH WIND       PRES   REMARKS
JACKSON        LGT RAIN  46  41  82 E14       29.77F
LAMBERTVILLE   DRIZZLE   44  40  88 E6        29.80S
LANSING        LGT RAIN  42  38  85 NE13      29.80F
LAPEER         DRIZZLE   37  33  84 NE3       29.86F
MASON          LGT RAIN  43  41  93 E7        29.79F
MONROE         LGT RAIN  41  39  93 NE12      29.80F
MT. CLEMENS    CLOUDY    39  36  88 N9        29.83S WCI  33
PONTIAC        LGT RAIN  38  33  82 NE10      29.82F WCI  31
PORT HOPE        N/A     36  32  85 N14       29.88S WCI  27
PORT HURON     DRIZZLE   37  34  87 N6        29.86S WCI  33
TRI CITIES     CLOUDY    38  34  85 E13       29.87S WCI  30
MIDLAND        CLOUDY    37  32  81 E9        29.86F WCI  30
TROY           CLOUDY    40  33  77 NE7       29.86S
SAGINAW HB     CLOUDY    37  32  81 E9        29.87S WCI  31
$$
MIZ043>046-050>051-056>058-064>065-071>073-077>080-240600-
SOUTHWEST LOWER MICHIGAN

CITY           SKY/WX    TMP DP  RH WIND       PRES   REMARKS
BATTLE CREEK   LGT RAIN  45  44  97 NE12      29.74F
BENTON HARBOR  LGT RAIN  46  43  89 E12G21    29.69F FOG
BIG RAPIDS     MIX PCPN  36  31  83 NE5       29.84R WCI  32
COLDWATER      LGT RAIN  48  46  93 E9        29.74F
FREMONT        DRIZZLE   37  33  85 NE9       29.79F WCI  31
HOLLAND        LGT RAIN  41  38  89 E12       29.75F
GRAND RAPIDS   LGT RAIN  40  36  86 NE15      29.77F WCI  32
IONIA          LGT RAIN  39  37  91 NE15G22   29.78F WCI  31
KALAMAZOO      LGT RAIN  47  42  83 NE8       29.74F
LUDINGTON      FLURRIES  33  32  96 NE6       29.84R WCI  28
MARSHALL       LGT RAIN  46  45  97 E9        29.74F
MOUNT PLEASANT CLOUDY    39  32  77 E6        29.85R WCI  34
MUSKEGON       LGT RAIN  40  36  86 NE12G21   29.79F WCI  33
SOUTH HAVEN    LGT RAIN  44  43  97 E12G20    29.71F
$$
MIZ016>042-240600-
NORTHERN LOWER MICHIGAN

CITY           SKY/WX    TMP DP  RH WIND       PRES   REMARKS
ALPENA         CLOUDY    33  24  69 N10       29.94R WCI  25
BEAVER ISLAND  CLOUDY    31  26  81 CALM      29.95S
BELLAIRE       LGT SNOW  30  29  95 N3        29.93F
CADILLAC       FLURRIES  32  29  90 N10       29.82F WCI  23
CHARLEVOIX     CLOUDY    32  24  71 NE6       29.97S WCI  27
FRANKFORT      FLURRIES  34  28  77 NE8       29.91R WCI  27
GAYLORD        LGT SNOW  29  23  78 NE10      29.89F VSB 1   WCI  20
GRAYLING       CLOUDY    32  27  82 NE13      29.90S WCI  22
HARBOR SPRINGS CLOUDY    32  22  67 NE5       29.94F WCI  27
HOUGHTON LAKE  CLOUDY    32  28  85 N12       29.86F WCI  23
MANISTEE       MIX PCPN  33  30  88 NE12G18   29.86F WCI  24
OSCODA         CLOUDY    35  27  73 N6        29.88F WCI  30
PELLSTON       MOCLDY    31  22  69 N5        29.95S WCI  26
ROGERS CITY    CLOUDY    32  23  69 NW9       29.96R WCI  25
TRAVERSE CITY  LGT SNOW  32  29  88 NE12      29.92R FOG     WCI  23
$$
MIZ007>008-015-240600-
EASTERN UPPER MICHIGAN

CITY           SKY/WX    TMP DP  RH WIND       PRES   REMARKS
KINROSS        CLOUDY    27  23  85 CALM      29.94F
MACKINAC ISLAN PTCLDY    29  24  81 NW3       29.95S
NEWBERRY       CLOUDY    30  24  77 N3        29.93F
S. S. MARIE    CLOUDY    32  21  64 N3        29.94S
MUNISING         N/A     32  27  81 N6        29.95F WCI  26
$$
MIZ004>006-011>014-085-240600-
CENTRAL UPPER MICHIGAN

CITY           SKY/WX    TMP DP  RH WIND       PRES   REMARKS
MANISTIQUE     CLOUDY    29  26  86 CALM      29.95S
ESCANABA       CLOUDY    32  24  72 NE6       29.96S WCI  26
MENOMINEE      CLOUDY    33  25  72 E14       29.93F WCI  23
SAWYER-GWINN   CLOUDY    28  25  87 N3        29.92F
$$
MIZ001>003-009>011-084-240600-
WESTERN UPPER MICHIGAN

CITY           SKY/WX    TMP DP  RH WIND       PRES   REMARKS
IRON MOUNTAIN  CLOUDY    30  22  72 N6        29.90F WCI  24
HOUGHTON       PTCLDY    28  19  69 NE14      29.92F WCI  17
COPPER HARBOR    N/A     28  21  75 NE21      29.96S WCI  15
IRONWOOD       CLOUDY    25  24  96 N5        29.94R WCI  19
$$

ABBREVIATIONS USED IN REMARKS
   TC - TEMPERATURE IN CELSIUS
  WCI - WIND CHILL INDEX
   HX - HEAT INDEX
  VSB - VISIBILITY





USA.gov is the U.S. government's official web portal to all federal, state and local government web resources and services.